Regional Weather Roundup
Issued by NWS State College, PA

Home | Current Version | Previous Version | Graphics & Text | Print | Product List | Glossary On
Versions: 1 2 3 4 5 6 7 8 9 10 11 12 13 14 15 16 17 18 19 20 21 22 23 24 25 26 27 28 29 30 31 32 33 34 35 36 37 38 39 40 41 42 43 44 45 46 47 48 49 50
000
ASUS41 KCTP 031210
RWRCTP

REGIONAL WEATHER ROUNDUP
NATIONAL WEATHER SERVICE STATE COLLEGE PA
700 AM EST TUE MAR 03 2015

Note: "fair" indicates few or no clouds below 12,000 feet with no
significant weather and/or obstructions to visibility.

* = STATION THAT DOES NOT REPORT PRECIPITATION /E.G. RAIN...SNOW...ETC/
    THUNDER OR FOG.

PAZ002>004-007>009-013>016-020>023-029>032-031300-
WESTERN PENNSYLVANIA

CITY           SKY/WX    TMP DP  RH WIND       PRES   REMARKS
ERIE           CLOUDY    19   9  65 SE10      30.24F WCI   7
MEADVILLE        N/A     17   8  67 VRB6      30.19F WCI   9
FRANKLIN*      CLOUDY    16   7  67 E9        30.22F WCI   4
NEW CASTLE     FAIR      19  11  71 CALM      30.24F
BEAVER COUNTY  CLOUDY    19  12  73 SE5       30.23  WCI  13
BUTLER*        CLOUDY    19  10  68 E10       30.24F WCI   8
PITTSBURGH INT CLOUDY    22  14  71 E5        30.23F
PITTSBURGH     CLOUDY    21  11  65 NE5       30.21F WCI  15
INDIANA*       CLOUDY    19  12  73 E9        30.29F WCI   9
LATROBE        CLOUDY    23  18  80 NE7       30.27F WCI  15
WASHINGTON CO* CLOUDY    21  16  79 CALM      30.24F
$$

PAZ004>006-010>012-017>019-024>028-033>037-041-042-045-046-049>053-031300-
CENTRAL PENNSYLVANIA

CITY           SKY/WX    TMP DP  RH WIND       PRES   REMARKS
BRADFORD       CLOUDY     7   2  80 SE5       30.21F WCI  -2
DUBOIS         CLOUDY    13   7  77 E9        30.24F WCI   1
CLEARFIELD     CLOUDY    11   5  77 NE7       30.29F WCI   0
JOHNSTOWN      CLOUDY    16  10  77 E5        30.20F WCI   9
ALTOONA        CLOUDY    18  10  71 NE3       30.31S
STATE COLLEGE  CLOUDY    18   9  68 CALM      30.34S
WILLIAMSPORT   CLOUDY    14   7  73 CALM      30.40F
SELINSGROVE    CLOUDY    17  11  77 CALM      30.41F
FT INDIANTOWN  CLOUDY    21  10  62 SE1       30.41S
CAPITAL CITY   CLOUDY    23  11  60 E6        30.42F
HARRISBURG     CLOUDY    22  12  65 CALM      30.42S
YORK           CLOUDY    23  12  62 E3        30.40F
$$

PAZ038>040-043-044-047-048-054-055-060>062-067>071-031300-
EASTERN PENNSYLVANIA

CITY           SKY/WX    TMP DP  RH WIND       PRES   REMARKS
SCRANTON       PTCLDY    14   5  67 E5        30.36R WCI   6
MOUNT POCONO   PTCLDY    11   5  77 NW5       30.27F WCI   3
ALLENTOWN      MOCLDY    18   9  68 CALM      30.42R
QUAKERTOWN*    PTSUNNY   16  10  79 CALM      30.42F
READING        CLOUDY    20   9  62 CALM      30.42F
LANCASTER      CLOUDY    21  11  65 CALM      30.41F
COATESVILLE    CLOUDY    23  14  68 CALM      30.40F
POTTSTOWN      CLOUDY    20  11  68 CALM      30.44S
BLUE BELL      MOCLDY    25  12  58 CALM      30.43R
DOYLESTOWN     MOCLDY    18  10  71 CALM      30.41S
WILLOW GROVE   NOT AVBL
NORTH PHILA    MOCLDY    25   9  50 NW3       30.46R
PHILADELPHIA   CLOUDY    26  10  50 N7        30.47R
$$


USA.gov is the U.S. government's official web portal to all federal, state and local government web resources and services.